Terminal Aerodrome Forecast
Issued by NWS

Home | Current Version | Previous Version | Text Only | Print | Product List | Glossary On
Versions: 1 2 3 4 5 6 7 8 9 10 11 12 13 14 15 16 17 18 19 20 21 22 23 24 25 26 27
000
FTAK31 PANC 071140
TAFAEN
TAF
PAEN 071140Z 0712/0812 14004KT P6SM -SHRA SCT040 OVC070
     FM071500 20005KT P6SM -SHRA BKN025 OVC040
     FM072000 24010KT P6SM SCT025 OVC040=

USA.gov is the U.S. government's official web portal to all federal, state and local government web resources and services.